Location: Gro�bocka
(50.8204°N, 11.9702°E)
Time: 06:48:05
(UTC+00:00)

Cosmos 1697 Rocket - Pass Details

Date: 29 October 2020
Orbit: 831 x 845 km, 71.0° (Epoch: 01 December)

Event Time Altitude Azimuth Distance (km) Brightness Sun altitude
Rises 17:07:19 0° 180° (S) 3,364 5.9 -12.4°
Reaches altitude 10° 17:09:54 10° 172° (S) 2,437 5.1 -12.8°
Maximum altitude 17:14:57 36° 107° (ESE) 1,299 3.2 -13.6°
Enters shadow 17:19:39 12° 45° (NE) 2,327 4.6 -14.4°
